Dewpoint
73 72 72 66 59 57 48 50 51 51 50 49 55 58 55 53 56 54 62 61 62 65 69 71 75 76 74 75 73 72 72 73 72 72 73 73 72 73 73 73 73 73 73 72 73 72 72 72 72
70 67 65 62 52 49 48 51 51 49 50 52 53 58 59 55 57 58 58 61 62 64 67 70 76 76 75 75 73 72 71 73 72 72 72 72 72 72 72 73 73 73 73 72 71 73 73 73 73
72 65 64 61 53 42 44 48 46 48 52 54 55 53 59 55 56 56 60 61 62 64 66 73 76 76 75 74 73 73 72 73 73 72 72 72 71 71 72 72 72 73 72 73 72 70 71 71 71
63 61 64 53 43 43 44 47 50 50 51 49 53 57 57 57 57 57 60 60 61 62 69 74 75 75 75 74 74 73 73 73 72 72 72 72 71 71 71 72 72 72 72 72 72 72 71 71 72
57 57 50 46 44 42 42 42 47 46 49 48 52 54 57 58 59 59 60 60 60 63 70 72 75 74 74 74 74 73 73 73 72 72 72 71 71 71 71 71 72 71 70 70 72 72 69 70 72
49 50 44 39 48 45 46 46 47 44 50 51 53 56 58 60 58 58 59 59 60 68 68 71 74 74 74 73 73 73 73 72 72 72 72 72 71 71 71 70 71 72 72 71 70 70 70 69 70
43 42 36 42 43 44 44 43 46 48 46 55 56 56 57 58 57 58 58 58 66 67 68 69 70 73 73 74 73 73 73 73 72 72 72 71 71 71 71 70 70 70 71 70 70 70 70 70 68
40 41 32 34 35 40 42 42 45 47 48 52 55 56 55 56 57 57 57 57 62 66 68 68 70 70 71 72 73 73 73 73 73 72 72 72 71 71 67 67 70 69 70 70 70 69 70 70 69
36 38 31 32 36 38 40 43 49 53 50 49 52 57 57 57 57 56 56 57 59 63 65 66 67 69 68 67 71 73 72 73 72 72 72 72 71 72 68 68 70 69 68 68 68 69 69 70 69
34 35 30 33 33 34 38 39 51 51 53 54 53 56 57 57 57 55 55 57 58 59 61 62 64 65 66 63 70 71 70 70 72 72 72 72 71 70 67 67 70 68 69 68 69 69 69 69 68
33 29 30 32 34 33 34 39 42 46 47 44 54 56 57 57 56 56 55 57 58 60 60 61 62 64 63 65 71 69 68 68 69 72 72 71 70 70 71 69 72 70 68 67 68 68 68 66 67
27 26 28 27 29 29 32 33 36 38 42 41 56 57 57 57 56 55 55 57 59 60 61 61 61 65 64 64 68 67 65 67 67 71 72 70 70 71 71 71 70 70 69 65 66 68 67 67 67
23 25 24 25 25 27 29 33 32 36 41 43 54 57 57 56 55 54 55 57 60 61 61 64 66 67 66 67 68 69 66 67 68 70 72 71 71 70 69 70 71 71 70 69 69 69 68 68 67
27 24 24 24 25 27 26 30 32 42 41 44 51 55 56 56 55 54 54 56 58 61 61 62 65 69 68 68 71 72 69 71 68 68 70 71 70 68 69 69 68 68 70 70 68 68 69 68 67
25 23 25 24 25 24 26 29 35 38 40 46 48 50 55 56 56 55 55 56 58 60 61 62 63 70 71 70 71 71 69 69 70 70 70 69 70 69 70 70 66 69 71 71 71 68 70 70 69
23 26 24 24 21 27 26 32 41 37 37 40 47 49 52 55 57 57 56 56 58 59 62 63 63 64 70 70 71 70 69 69 69 68 69 70 71 71 70 70 67 71 71 71 70 70 69 69 69
23 22 22 21 23 19 22 27 41 37 34 39 46 49 49 52 57 60 57 57 59 60 64 63 64 64 69 71 71 71 70 70 69 68 70 70 68 71 70 71 71 69 70 71 70 70 70 69 68
28 25 20 20 22 19 20 29 40 41 33 42 45 50 56 57 56 58 58 58 60 61 64 65 65 67 70 71 71 70 68 69 70 68 69 70 70 71 71 70 70 71 72 69 70 69 69 68 68
24 19 16 19 20 18 21 23 36 39 38 42 44 47 55 54 53 57 58 60 65 63 64 67 68 69 69 70 70 69 68 68 68 70 68 70 71 71 72 70 71 71 70 69 69 70 69 70 69
17 16 16 16 19 19 21 24 34 37 40 42 43 46 47 48 50 55 58 58 65 62 67 68 69 72 70 70 70 70 69 68 69 69 70 71 68 71 71 71 71 70 70 70 71 70 68 68 68
15 16 14 14 19 19 20 36 44 47 46 44 46 46 50 51 52 51 52 54 62 64 68 68 70 73 72 71 71 71 71 70 70 69 70 72 72 71 72 71 71 70 70 69 70 71 70 68 68
15 17 14 11 11 12 21 30 46 46 47 46 44 44 46 48 53 52 52 55 55 64 66 70 71 73 73 73 71 69 69 67 67 68 69 70 70 73 71 71 71 70 71 69 70 70 70 69 67
16 16 17 13 11 13 32 32 42 43 38 44 41 43 46 47 53 53 53 55 57 58 63 69 72 73 72 73 73 71 70 69 70 70 69 71 71 71 71 72 71 71 73 70 69 70 69 70 68
17 14 14 12 10 11 32 36 37 42 43 45 40 42 45 45 54 56 58 59 61 61 62 66 71 71 72 72 73 72 71 70 69 68 69 70 70 71 71 71 71 72 73 72 71 71 70 70 69
14 12 11 12 10 16 20 32 37 41 43 36 40 42 46 47 49 56 59 61 62 62 63 64 69 71 72 72 72 73 73 73 69 70 69 68 69 69 70 70 71 72 73 72 73 71 70 71 69
14 12 11 12 15 24 25 34 35 39 37 38 40 43 45 47 50 55 61 63 63 64 63 64 68 69 70 70 71 72 72 71 71 70 69 69 68 69 69 70 71 72 73 73 72 72 72 70 70
16 16 19 15 15 17 28 36 42 47 40 39 42 44 45 46 50 54 58 61 63 64 65 67 69 70 69 69 69 69 69 69 70 69 69 69 70 70 71 71 70 71 72 72 72 72 72 70 71
19 23 20 13 23 26 31 40 43 46 45 40 41 44 48 49 50 53 56 59 61 62 64 66 67 68 67 66 66 67 68 69 69 68 68 67 71 71 70 70 71 72 72 72 72 72 72 72 72
18 20 19 18 32 31 36 39 46 40 45 39 41 45 48 49 51 53 57 59 60 62 63 63 64 65 66 66 66 67 68 69 68 67 68 69 70 71 70 71 72 72 71 71 72 72 71 71 72
22 24 24 23 31 31 27 40 43 43 38 41 43 47 49 51 53 55 57 59 61 63 64 64 65 64 64 66 67 66 66 67 66 66 67 69 68 69 70 71 72 72 71 72 72 71 71 70 71
Wind_Speed
12 13 14 4 6 2 16 13 6 12 1 10 30 17 13 3 13 7 27 22 31 27 23 20 18 20 19 17 16 14 12 13 14 14 14 14 14 13 13 12 11 13 13 13 13 10 11 11 11
14 10 4 4 6 5 8 6 5 13 17 15 17 16 16 15 17 23 25 29 30 27 23 22 20 21 18 18 17 15 13 13 13 14 13 13 12 12 10 11 11 11 12 11 11 11 11 12 12
12 7 7 7 7 13 15 7 14 12 15 7 6 17 10 18 20 23 27 29 30 25 22 22 20 20 19 17 16 15 15 14 13 13 13 12 12 10 10 10 10 10 12 11 9 10 11 10 10
8 9 8 3 21 18 14 17 9 13 6 16 12 16 14 18 14 25 28 28 27 25 25 21 20 19 18 17 16 16 15 14 13 12 11 11 10 9 9 9 8 7 8 9 9 9 10 12 8
12 10 6 9 14 10 8 7 17 8 14 15 15 20 16 11 16 25 25 27 26 27 26 21 19 17 17 16 15 15 14 14 12 11 10 9 8 8 6 5 6 7 6 7 9 8 7 8 6
14 12 3 9 30 20 13 20 10 16 17 16 18 19 12 11 20 23 22 24 25 28 26 23 18 17 15 15 14 13 13 12 12 10 9 8 6 5 3 2 3 5 6 6 6 7 8 7 5
17 12 7 19 17 11 1 14 19 3 16 24 8 17 11 18 20 21 19 21 30 25 26 20 19 15 15 14 14 13 12 12 11 10 8 7 5 3 3 6 6 6 7 7 7 8 9 8 8
5 12 11 9 11 5 8 13 16 17 9 18 14 8 17 20 20 20 19 20 30 25 23 20 17 15 14 14 14 13 12 12 11 10 9 7 7 6 8 12 10 8 8 8 9 9 10 10 11
12 11 12 11 12 7 6 11 20 23 27 16 12 20 23 22 21 19 17 19 16 23 23 21 19 17 15 16 15 13 13 13 12 10 10 8 7 11 7 19 17 12 11 11 11 11 12 13 14
1 3 4 9 8 4 8 10 30 14 12 5 18 20 22 20 20 20 18 21 18 13 18 22 20 19 16 17 20 16 14 13 12 12 12 10 14 12 21 21 19 13 11 11 12 12 12 12 12
4 7 3 7 8 11 10 6 12 17 5 4 19 18 19 19 18 19 17 19 19 15 13 18 18 20 17 8 17 13 13 13 16 16 16 14 16 24 22 14 14 12 13 10 13 12 11 14 13
7 3 3 4 8 2 7 9 4 10 8 11 21 18 16 17 16 17 17 16 17 15 14 12 15 17 14 12 16 16 14 13 7 14 16 14 11 22 22 18 13 8 6 12 11 7 10 11 7
8 1 7 8 7 2 2 5 6 9 11 8 19 16 14 13 14 15 15 19 17 16 10 17 11 13 10 3 1 2 9 10 7 10 15 6 12 5 7 11 12 9 13 12 7 10 13 11 12
5 5 6 4 2 2 2 4 2 11 7 4 14 16 19 18 16 14 15 18 17 18 15 12 17 16 12 9 3 4 12 12 6 11 11 14 8 12 11 8 7 3 8 8 9 8 10 11 10
5 12 9 11 3 3 8 13 4 7 3 9 7 9 20 19 17 20 17 17 18 18 19 16 13 19 14 10 7 7 5 10 7 13 13 13 13 8 16 10 3 3 0 5 8 10 10 9 12
12 15 11 7 3 6 8 5 6 3 6 2 7 9 13 18 20 7 18 16 21 20 20 17 17 13 18 15 14 11 13 11 13 9 10 14 13 9 10 11 8 5 5 12 10 11 10 12 13
14 11 4 3 8 3 7 4 11 4 3 1 7 12 8 12 20 23 15 16 22 18 18 19 16 18 20 13 13 15 11 12 14 11 9 12 8 4 7 7 11 16 11 15 14 13 9 11 14
0 19 10 3 6 2 12 8 15 6 1 7 5 12 24 26 20 19 23 20 22 19 25 22 14 10 13 14 12 9 10 10 10 12 12 11 10 3 11 11 11 17 14 14 14 12 9 11 15
2 9 8 8 7 3 11 4 12 6 5 1 2 3 26 24 11 17 17 22 9 18 10 20 14 15 12 11 14 12 13 12 11 14 13 13 16 17 20 14 9 13 12 14 12 10 9 6 13
8 10 15 10 8 6 10 4 11 9 5 3 2 4 4 4 3 11 15 12 28 17 26 17 17 18 16 13 13 14 15 14 14 14 12 12 14 17 17 12 11 13 8 13 10 9 5 5 11
10 15 17 6 1 8 12 7 28 42 41 4 3 3 9 5 2 3 9 11 16 19 17 22 18 19 18 15 14 12 10 11 6 12 11 14 18 16 12 10 12 7 4 10 10 11 11 8 8
18 7 11 4 10 13 19 6 23 21 27 23 8 9 8 1 8 4 7 11 12 20 19 23 20 18 16 14 16 15 15 14 14 15 17 16 9 14 3 9 14 14 7 9 10 11 10 9 12
17 7 10 14 15 18 14 6 3 4 12 30 11 8 10 3 11 4 6 4 5 6 12 17 17 17 15 15 17 17 18 17 14 8 12 16 17 15 18 21 16 16 11 10 11 14 11 11 11
7 13 15 17 17 19 21 13 12 15 21 24 9 7 8 7 13 9 7 7 6 5 5 11 11 8 11 14 15 17 19 20 24 18 7 22 10 15 14 13 17 15 11 12 12 11 10 11 11
10 16 18 17 19 3 14 11 10 28 24 12 15 9 8 12 7 11 9 8 9 7 6 6 8 6 6 6 8 13 16 21 21 20 12 14 21 11 16 17 14 13 12 13 12 13 13 11 13
18 19 16 11 12 16 14 10 5 14 12 12 15 13 13 12 10 12 10 8 7 6 6 3 6 4 4 4 9 13 18 17 14 16 14 12 12 12 32 10 17 14 13 14 13 12 11 12 13
19 20 21 14 26 9 12 9 29 42 6 14 13 13 12 10 13 12 12 10 10 8 6 5 5 3 3 4 8 11 18 17 10 12 8 7 9 16 18 6 16 9 11 12 14 12 13 13 14
17 16 21 12 5 5 4 6 16 30 13 13 12 14 13 12 12 12 11 10 8 8 6 5 4 3 2 4 6 10 10 15 14 7 1 8 12 18 20 10 9 7 10 10 13 14 14 14 14
13 16 17 9 10 8 14 13 22 31 25 15 9 12 15 15 14 11 11 10 9 8 6 5 3 3 3 3 4 7 6 5 5 6 6 9 13 20 16 12 10 10 12 13 14 17 16 16 16
16 7 14 13 12 14 15 14 33 31 10 11 12 10 14 16 15 11 10 9 8 7 4 4 2 3 3 7 2 2 5 4 4 9 10 11 15 20 16 11 10 14 16 14 14 17 16 16 16
Wind_Direction
198 207 213 270 303 317 66 64 359 95 5 58 81 91 135 325 161 90 142 154 133 137 140 142 145 144 150 149 152 146 134 118 112 106 103 110 112 109 111 107 104 99 95 98 99 105 113 112 107
237 248 257 281 147 57 55 137 124 65 78 38 83 130 67 67 87 124 150 126 133 138 147 141 142 145 148 149 154 152 144 130 121 115 112 110 112 115 114 107 112 113 107 102 111 117 121 120 120
256 272 262 196 196 42 74 76 82 37 93 123 78 72 156 95 114 142 126 138 131 138 139 134 140 143 147 149 151 149 144 138 132 125 120 116 115 114 110 108 106 106 114 120 123 126 127 128 129
251 234 258 292 8 42 62 76 107 136 92 80 72 83 72 98 128 121 136 142 135 144 126 136 136 143 146 148 149 148 146 145 142 135 130 130 127 123 119 118 115 113 110 116 128 145 149 139 133
243 264 326 126 138 88 62 51 100 97 63 56 104 87 87 92 105 132 145 141 140 136 132 138 139 143 145 149 153 155 152 152 147 146 147 145 143 141 136 134 139 144 137 132 131 146 142 143 136
279 252 252 79 29 60 325 50 333 50 71 101 88 88 94 120 125 138 157 138 139 128 138 142 143 143 147 151 159 163 163 159 156 163 162 153 151 149 158 191 194 178 169 166 150 152 141 141 159
257 284 46 101 156 117 67 48 65 10 58 73 87 53 112 130 140 147 161 140 127 140 134 145 152 154 155 157 161 167 170 166 174 178 172 179 174 190 251 261 236 223 201 203 197 191 201 215 226
310 303 68 45 68 86 19 71 39 57 49 117 125 163 147 139 150 152 157 146 126 129 138 149 155 164 171 172 176 180 182 180 191 191 193 196 197 201 21 304 259 238 232 229 232 224 223 223 227
295 290 59 43 85 104 13 74 94 3 355 74 55 130 130 148 155 156 158 138 139 141 145 156 165 171 184 176 178 191 197 198 201 200 206 199 216 123 202 250 260 231 227 227 234 230 228 228 231
327 246 59 338 48 49 108 86 108 117 52 188 97 107 131 154 160 160 168 144 154 167 158 162 172 171 183 196 159 184 191 196 198 200 189 214 124 123 265 249 239 235 226 231 231 223 219 223 230
40 90 30 118 26 338 346 154 61 132 174 108 120 128 144 154 168 168 175 157 160 177 184 157 171 159 176 190 156 177 197 199 195 189 188 201 190 177 233 241 228 217 213 232 216 209 216 222 225
246 160 165 82 160 134 345 349 27 62 81 7 118 133 146 158 172 171 176 152 151 171 193 157 153 154 182 176 173 181 193 194 183 176 190 205 219 163 195 211 220 206 206 236 247 216 224 257 163
270 272 193 159 181 149 184 299 44 60 73 91 110 126 146 166 170 173 177 168 161 163 203 159 149 147 170 281 170 106 158 161 115 182 196 210 222 219 189 165 196 196 195 230 249 219 223 242 244
19 272 286 208 257 320 312 286 87 97 79 80 125 153 160 168 174 169 180 168 169 165 190 181 165 157 172 201 317 328 158 176 103 283 223 204 220 205 217 189 230 139 199 214 238 257 233 228 222
225 267 267 207 110 315 340 261 105 70 171 127 154 164 158 167 183 171 178 174 164 173 177 194 187 161 167 195 214 229 258 158 167 213 227 183 222 175 162 155 208 282 37 267 232 235 264 242 232
236 250 254 115 64 131 249 157 158 179 113 296 138 142 172 163 160 178 172 173 161 185 173 188 191 182 169 181 194 218 224 190 209 190 210 200 186 191 150 166 190 105 284 247 252 226 241 243 255
213 218 300 175 134 288 252 196 136 144 93 256 160 169 183 176 167 176 174 181 161 180 169 174 199 191 172 181 184 213 215 200 196 200 210 218 198 266 189 174 190 183 208 223 226 236 210 214 256
16 288 153 199 120 17 288 91 147 127 25 163 158 175 80 293 178 194 174 193 167 183 172 170 186 187 165 177 191 223 239 219 206 211 201 218 156 122 231 219 195 185 205 218 218 222 222 200 212
281 325 313 265 119 276 294 305 125 93 116 95 271 205 147 203 206 186 202 182 107 195 151 160 174 166 180 199 191 211 232 228 234 198 221 212 158 171 231 216 215 201 199 200 209 193 222 199 216
262 243 262 239 153 200 252 326 79 94 75 81 87 226 109 108 229 183 208 203 174 190 174 155 181 167 185 220 217 208 206 227 218 211 228 196 222 201 193 194 234 212 177 188 204 201 170 253 233
242 255 265 346 148 224 244 85 36 355 343 315 114 240 110 112 350 234 214 257 185 175 167 171 186 174 185 211 227 226 241 237 203 207 220 203 211 210 191 204 245 268 252 206 201 208 211 216 264
250 264 354 298 262 270 269 168 44 343 311 317 166 44 105 181 101 346 338 198 238 182 182 177 184 178 185 199 241 245 229 230 235 209 217 217 184 247 77 216 217 242 224 243 205 226 210 202 249
263 348 307 294 273 261 80 68 316 328 305 282 291 138 101 320 90 40 6 352 152 191 169 164 167 179 192 211 230 248 248 250 253 235 210 200 202 186 185 217 205 226 210 231 237 267 196 204 228
300 284 278 249 241 257 149 135 193 233 198 251 130 129 121 100 104 79 47 62 79 71 126 140 149 169 189 207 217 235 247 246 244 257 341 318 225 181 200 202 200 209 206 227 241 246 238 223 236
240 251 259 242 228 288 313 158 201 224 225 159 148 138 119 105 106 87 84 98 123 124 128 122 131 169 222 227 260 263 262 263 250 216 207 233 297 310 190 211 203 204 204 220 220 224 234 244 241
226 246 265 285 293 226 242 90 185 203 152 118 123 135 126 116 108 103 107 118 129 149 165 144 116 199 221 274 273 272 276 278 231 193 188 194 256 318 292 232 211 205 203 211 228 227 219 230 241
249 251 267 270 259 232 45 31 26 341 186 134 131 125 113 114 119 122 124 123 123 135 141 142 151 177 211 268 10 348 328 305 210 171 193 235 258 264 190 225 242 211 212 218 222 223 223 224 231
265 280 295 271 352 60 20 60 134 271 255 150 148 131 123 131 116 108 105 115 133 125 127 113 108 172 345 28 10 22 5 53 68 54 328 275 300 299 300 234 239 236 256 228 225 230 232 221 228
211 243 259 307 127 85 337 303 213 205 228 139 135 152 140 133 119 111 112 121 115 98 101 109 167 193 216 174 39 37 61 62 89 129 232 260 297 288 291 296 282 275 261 243 231 229 237 228 227
274 343 303 281 10 229 230 208 251 214 171 128 164 98 100 108 111 114 117 114 115 101 114 113 47 336 295 121 139 124 125 165 203 281 261 245 247 268 275 269 270 268 263 254 237 243 237 232 218